This is the latest recevied weather packets stored in our database for station/object K3RUP-1. If no packets are shown the sender has not sent any weather packets the latest 10 day(s).
| Time | Temp. | Humidity | Pressure | Rain* | Wind** | Luminosity | Snow |
|---|---|---|---|---|---|---|---|
| 1777670798 | 17.22° C | 51% | 1010.5 hPa | 0 mm | - | 147 W/m² | - |
| 1777670495 | 16.67° C | 51% | 1010.3 hPa | 0 mm | - | 279 W/m² | - |
| 1777670191 | 16.67° C | 53% | 1010.5 hPa | 0 mm | - | 60 W/m² | - |
| 1777669889 | 17.22° C | 53% | 1010.4 hPa | 0 mm | - | 70 W/m² | - |
| 1777669586 | 17.22° C | 53% | 1010.4 hPa | 0 mm | - | 153 W/m² | - |
| 1777669283 | 17.78° C | 48% | 1010.8 hPa | 0 mm | - | 289 W/m² | - |
| 1777668979 | 18.33° C | 48% | 1010.6 hPa | 0 mm | - | 413 W/m² | - |
| 1777668677 | 17.78° C | 47% | 1010.6 hPa | 0 mm | - | 328 W/m² | - |
| 1777668373 | 17.78° C | 47% | 1010.7 hPa | 0 mm | - | 339 W/m² | - |
| 1777668069 | 17.78° C | 48% | 1010.7 hPa | 0 mm | - | 388 W/m² | - |
| 1777667766 | 17.78° C | 48% | 1010.8 hPa | 0 mm | - | 401 W/m² | - |
| 1777667463 | 17.78° C | 47% | 1010.9 hPa | 0 mm | - | 460 W/m² | - |
| 1777667160 | 17.78° C | 46% | 1010.8 hPa | 0 mm | - | 348 W/m² | - |
| 1777666857 | 17.78° C | 46% | 1011 hPa | 0 mm | - | 495 W/m² | - |
| 1777666554 | 18.33° C | 45% | 1011.2 hPa | 0 mm | - | 522 W/m² | - |
| 1777666250 | 18.33° C | 46% | 1011.3 hPa | 0 mm | - | 535 W/m² | - |
| 1777665948 | 18.33° C | 47% | 1011.3 hPa | 0 mm | - | 232 W/m² | - |
| 1777665645 | 18.33° C | 45% | 1011.2 hPa | 0 mm | - | 453 W/m² | - |
| 1777665342 | 18.33° C | 46% | 1011.3 hPa | 0 mm | - | 494 W/m² | - |
| 1777665037 | 17.78° C | 47% | 1011.6 hPa | 0 mm | - | 559 W/m² | - |
| 1777664733 | 17.78° C | 46% | 1011.6 hPa | 0 mm | - | 582 W/m² | - |
| 1777664429 | 18.33° C | 46% | 1011.6 hPa | 0 mm | - | 547 W/m² | - |
| 1777664127 | 17.78° C | 47% | 1011.6 hPa | 0 mm | - | 550 W/m² | - |
| 1777663826 | 18.33° C | 47% | 1011.7 hPa | 0 mm | - | 568 W/m² | - |
| 1777663522 | 18.33° C | 47% | 1011.7 hPa | 0 mm | - | 576 W/m² | - |
* Rain latest hour (hover to see other rain measurements)
** Current wind speed in m/s (hover to see current wind gust speed)